AEA5036 LEMG-LEMD

Flight info

Callsign AEA5036
Flight time 0h 50m
Altitude 32000
Route BLN DCT MORAL
Aircraft B738/M-SDE2E3FGHIRWXY/LB1

Departure

Time 2026-05-06 10:31
Airport Málaga-Costa del Sol Airport (LEMG)

Arrival

Time 2026-05-06 11:21
Airport Adolfo Suárez Madrid–Barajas Airport (LEMD)
Time Latitude Longitude Altitude Speed Heading
2026-05-06 10:15 36.67735 -4.49578 41 ft 0 kts 41°
2026-05-06 10:20 36.67721 -4.49594 40 ft 3 kts 46°
2026-05-06 10:20 36.67707 -4.49614 38 ft 3 kts 58°
2026-05-06 10:20 36.67698 -4.49637 39 ft 3 kts 86°
2026-05-06 10:20 36.67701 -4.49657 40 ft 3 kts 124°
2026-05-06 10:21 36.67714 -4.49678 39 ft 3 kts 131°
2026-05-06 10:21 36.67718 -4.49683 40 ft 1 kts 131°
2026-05-06 10:23 36.67716 -4.49680 41 ft 1 kts 131°
2026-05-06 10:24 36.67702 -4.49662 39 ft 4 kts 134°
2026-05-06 10:24 36.67667 -4.49656 41 ft 7 kts 203°
2026-05-06 10:24 36.67609 -4.49647 41 ft 11 kts 163°
2026-05-06 10:24 36.67555 -4.49696 42 ft 11 kts 273°
2026-05-06 10:25 36.67603 -4.49773 42 ft 12 kts 312°
2026-05-06 10:25 36.67670 -4.49865 42 ft 16 kts 311°
2026-05-06 10:25 36.67772 -4.49861 41 ft 17 kts 21°
2026-05-06 10:25 36.67864 -4.49780 41 ft 16 kts 41°
2026-05-06 10:26 36.67947 -4.49688 41 ft 16 kts 41°
2026-05-06 10:26 36.68026 -4.49600 41 ft 15 kts 42°
2026-05-06 10:26 36.68105 -4.49510 41 ft 16 kts 42°
2026-05-06 10:26 36.68186 -4.49424 41 ft 15 kts 40°
2026-05-06 10:27 36.68263 -4.49339 39 ft 14 kts 45°
2026-05-06 10:27 36.68269 -4.49228 37 ft 14 kts 118°
2026-05-06 10:27 36.68222 -4.49120 37 ft 16 kts 118°
2026-05-06 10:27 36.68169 -4.48990 39 ft 17 kts 117°
2026-05-06 10:28 36.68115 -4.48863 39 ft 16 kts 118°
2026-05-06 10:28 36.68062 -4.48741 39 ft 16 kts 118°
2026-05-06 10:28 36.68011 -4.48625 39 ft 15 kts 118°
2026-05-06 10:28 36.67961 -4.48500 37 ft 17 kts 117°
2026-05-06 10:29 36.67908 -4.48373 39 ft 16 kts 117°
2026-05-06 10:29 36.67857 -4.48251 36 ft 16 kts 118°
2026-05-06 10:29 36.67808 -4.48135 36 ft 15 kts 118°
2026-05-06 10:29 36.67760 -4.48024 32 ft 14 kts 117°
2026-05-06 10:30 36.67732 -4.47912 32 ft 14 kts 68°
2026-05-06 10:30 36.67809 -4.47849 34 ft 13 kts 28°
2026-05-06 10:30 36.67881 -4.47873 36 ft 14 kts 296°
2026-05-06 10:30 36.67978 -4.48098 36 ft 60 kts 298°
2026-05-06 10:31 36.68276 -4.48806 42 ft 125 kts 297°
2026-05-06 10:31 36.68765 -4.49985 104 ft 172 kts 296°
2026-05-06 10:31 36.69408 -4.51188 876 ft 162 kts 313°
2026-05-06 10:31 36.70190 -4.52167 1612 ft 168 kts 314°
2026-05-06 10:32 36.71085 -4.53306 1937 ft 200 kts 313°
2026-05-06 10:32 36.72099 -4.54613 2349 ft 216 kts 313°
2026-05-06 10:32 36.73146 -4.55977 2979 ft 219 kts 313°
2026-05-06 10:32 36.74206 -4.57361 3689 ft 222 kts 313°
2026-05-06 10:33 36.75253 -4.58745 4627 ft 217 kts 314°
2026-05-06 10:33 36.76266 -4.60149 5388 ft 220 kts 313°
2026-05-06 10:33 36.77303 -4.61590 6039 ft 227 kts 313°
2026-05-06 10:33 36.78370 -4.63054 6762 ft 227 kts 313°
2026-05-06 10:34 36.79441 -4.64498 7551 ft 227 kts 316°
2026-05-06 10:34 36.80846 -4.65392 8105 ft 235 kts 355°
2026-05-06 10:34 36.82427 -4.64907 8764 ft 242 kts 34°
2026-05-06 10:34 36.83514 -4.63246 9125 ft 263 kts 70°
2026-05-06 10:35 36.83609 -4.60951 9674 ft 271 kts 103°
2026-05-06 10:35 36.83402 -4.58613 10321 ft 277 kts 79°
2026-05-06 10:35 36.84232 -4.56504 10923 ft 279 kts 43°
2026-05-06 10:35 36.85789 -4.55069 11614 ft 280 kts 33°
2026-05-06 10:36 36.87389 -4.53644 12297 ft 285 kts 34°
2026-05-06 10:36 36.88989 -4.52155 13008 ft 289 kts 35°
2026-05-06 10:36 36.90596 -4.50624 13755 ft 292 kts 36°
2026-05-06 10:36 36.92211 -4.49058 14446 ft 296 kts 36°
2026-05-06 10:37 36.93839 -4.47463 15131 ft 300 kts 36°
2026-05-06 10:37 36.95490 -4.45840 15813 ft 304 kts 36°
2026-05-06 10:37 36.97168 -4.44187 16491 ft 309 kts 36°
2026-05-06 10:37 36.98894 -4.42547 17101 ft 317 kts 32°
2026-05-06 10:38 37.00800 -4.40970 17247 ft 339 kts 30°
2026-05-06 10:38 37.02861 -4.39361 17442 ft 359 kts 29°
2026-05-06 10:38 37.05048 -4.37672 17631 ft 378 kts 29°
2026-05-06 10:38 37.07316 -4.35910 18133 ft 387 kts 29°
2026-05-06 10:39 37.09613 -4.34109 18725 ft 391 kts 29°
2026-05-06 10:39 37.11928 -4.32281 19316 ft 395 kts 29°
2026-05-06 10:39 37.14265 -4.30427 19878 ft 400 kts 29°
2026-05-06 10:39 37.16631 -4.28544 20429 ft 405 kts 30°
2026-05-06 10:40 37.19023 -4.26637 20989 ft 409 kts 30°
2026-05-06 10:40 37.21439 -4.24708 21522 ft 414 kts 30°
2026-05-06 10:40 37.23881 -4.22757 22050 ft 419 kts 30°
2026-05-06 10:40 37.26321 -4.20806 22567 ft 423 kts 29°
2026-05-06 10:41 37.28815 -4.18810 23088 ft 427 kts 29°
2026-05-06 10:41 37.31368 -4.16764 23596 ft 432 kts 29°
2026-05-06 10:41 37.33918 -4.14728 24025 ft 436 kts 29°
2026-05-06 10:41 37.36481 -4.12671 24487 ft 438 kts 29°
2026-05-06 10:42 37.39057 -4.10600 24922 ft 441 kts 29°
2026-05-06 10:42 37.41621 -4.08538 25383 ft 444 kts 29°
2026-05-06 10:42 37.44223 -4.06443 25889 ft 445 kts 29°
2026-05-06 10:42 37.46840 -4.04336 26278 ft 449 kts 28°
2026-05-06 10:43 37.49484 -4.02207 26637 ft 453 kts 28°
2026-05-06 10:43 37.52150 -4.00058 27025 ft 457 kts 28°
2026-05-06 10:43 37.54832 -3.97894 27418 ft 459 kts 28°
2026-05-06 10:44 37.60252 -3.93514 28204 ft 465 kts 28°
2026-05-06 10:44 37.62971 -3.91313 28732 ft 464 kts 28°
2026-05-06 10:44 37.65682 -3.89115 29336 ft 462 kts 28°
2026-05-06 10:44 37.68389 -3.86920 29790 ft 463 kts 28°
2026-05-06 10:45 37.71106 -3.84717 30159 ft 464 kts 28°
2026-05-06 10:45 37.73825 -3.82509 30581 ft 464 kts 28°
2026-05-06 10:45 37.76532 -3.80307 31089 ft 461 kts 28°
2026-05-06 10:45 37.79224 -3.78117 31533 ft 460 kts 28°
2026-05-06 10:46 37.81918 -3.75926 31864 ft 462 kts 28°
2026-05-06 10:46 37.84714 -3.73955 31914 ft 458 kts 13°
2026-05-06 10:46 37.87739 -3.72771 31995 ft 454 kts
2026-05-06 10:47 37.93795 -3.70622 31961 ft 447 kts
2026-05-06 10:47 37.99766 -3.68424 31956 ft 448 kts
2026-05-06 10:48 38.05744 -3.66154 31953 ft 449 kts 10°
2026-05-06 10:48 38.11740 -3.63861 31957 ft 451 kts 10°
2026-05-06 10:49 38.16763 -3.62149 31933 ft 444 kts
2026-05-06 10:49 38.22861 -3.61503 31947 ft 438 kts 355°
2026-05-06 10:50 38.28958 -3.61083 31947 ft 439 kts 355°
2026-05-06 10:50 38.35060 -3.60574 31947 ft 440 kts 356°
2026-05-06 10:51 38.41162 -3.59994 31943 ft 439 kts 356°
2026-05-06 10:51 38.47243 -3.59398 31948 ft 438 kts 356°
2026-05-06 10:52 38.53312 -3.58800 31956 ft 437 kts 356°
2026-05-06 10:52 38.59373 -3.58206 31948 ft 437 kts 356°
2026-05-06 10:53 38.65349 -3.57614 31587 ft 425 kts 357°
2026-05-06 10:53 38.68273 -3.57324 31248 ft 420 kts 357°
2026-05-06 10:53 38.71173 -3.57038 30891 ft 416 kts 357°
2026-05-06 10:53 38.74050 -3.56756 30547 ft 413 kts 357°
2026-05-06 10:54 38.76867 -3.56480 30190 ft 410 kts 357°
2026-05-06 10:54 38.79740 -3.56199 29798 ft 407 kts 357°
2026-05-06 10:54 38.82514 -3.55926 29403 ft 404 kts 357°
2026-05-06 10:54 38.85297 -3.55651 29067 ft 400 kts 357°
2026-05-06 10:55 38.88065 -3.55378 28658 ft 397 kts 357°
2026-05-06 10:55 38.90801 -3.55108 28303 ft 393 kts 358°
2026-05-06 10:55 38.93515 -3.54840 27928 ft 389 kts 358°
2026-05-06 10:55 38.96201 -3.54574 27568 ft 386 kts 358°
2026-05-06 10:56 38.98856 -3.54436 27177 ft 375 kts 346°
2026-05-06 10:56 39.01301 -3.55256 26877 ft 354 kts 328°
2026-05-06 10:56 39.03416 -3.56796 26534 ft 347 kts 321°
2026-05-06 10:56 39.05448 -3.58452 26171 ft 344 kts 321°
2026-05-06 10:57 39.07463 -3.60124 25843 ft 345 kts 321°
2026-05-06 10:57 39.09484 -3.61799 25476 ft 345 kts 321°
2026-05-06 10:57 39.11500 -3.63458 25122 ft 342 kts 322°
2026-05-06 10:57 39.13506 -3.65101 24765 ft 340 kts 322°
2026-05-06 10:58 39.15474 -3.66705 24426 ft 339 kts 322°
2026-05-06 10:58 39.17462 -3.68323 24083 ft 337 kts 322°
2026-05-06 10:58 39.19439 -3.69931 23744 ft 335 kts 322°
2026-05-06 10:58 39.21412 -3.71536 23375 ft 334 kts 322°
2026-05-06 10:59 39.23372 -3.73130 22978 ft 332 kts 322°
2026-05-06 10:59 39.25321 -3.74716 22618 ft 330 kts 322°
2026-05-06 10:59 39.27255 -3.76292 22275 ft 327 kts 322°
2026-05-06 10:59 39.29175 -3.77856 21954 ft 325 kts 323°
2026-05-06 11:00 39.31084 -3.79413 21599 ft 324 kts 323°
2026-05-06 11:00 39.32994 -3.80973 21260 ft 324 kts 323°
2026-05-06 11:00 39.34901 -3.82531 20930 ft 324 kts 323°
2026-05-06 11:00 39.36782 -3.84068 20595 ft 324 kts 323°
2026-05-06 11:01 39.38684 -3.85623 20249 ft 324 kts 323°
2026-05-06 11:01 39.40581 -3.87174 19928 ft 322 kts 323°
2026-05-06 11:01 39.42465 -3.88716 19595 ft 319 kts 323°
2026-05-06 11:01 39.44341 -3.90251 19263 ft 318 kts 323°
2026-05-06 11:02 39.46203 -3.91777 18936 ft 316 kts 324°
2026-05-06 11:02 39.48059 -3.93298 18609 ft 315 kts 324°
2026-05-06 11:02 39.49908 -3.94815 18279 ft 313 kts 324°
2026-05-06 11:02 39.51744 -3.96323 17934 ft 312 kts 324°
2026-05-06 11:03 39.53569 -3.97821 17579 ft 310 kts 324°
2026-05-06 11:03 39.55380 -3.99310 17245 ft 307 kts 324°
2026-05-06 11:03 39.57180 -4.00791 16922 ft 305 kts 324°
2026-05-06 11:03 39.58965 -4.02260 16609 ft 303 kts 325°
2026-05-06 11:04 39.60738 -4.03721 16294 ft 301 kts 325°
2026-05-06 11:04 39.62501 -4.05173 15978 ft 299 kts 325°
2026-05-06 11:04 39.64263 -4.06626 15669 ft 301 kts 325°
2026-05-06 11:04 39.66070 -4.08009 15339 ft 304 kts 335°
2026-05-06 11:05 39.68129 -4.08498 15005 ft 309 kts
2026-05-06 11:05 39.70204 -4.07817 14748 ft 311 kts 24°
2026-05-06 11:05 39.71956 -4.06158 14481 ft 315 kts 43°
2026-05-06 11:05 39.73495 -4.04132 14204 ft 316 kts 44°
2026-05-06 11:06 39.75011 -4.02070 13906 ft 315 kts 45°
2026-05-06 11:06 39.76523 -4.00027 13593 ft 312 kts 44°
2026-05-06 11:06 39.78031 -3.98014 13276 ft 309 kts 44°
2026-05-06 11:06 39.79531 -3.96024 12989 ft 306 kts 44°
2026-05-06 11:07 39.81013 -3.94060 12707 ft 302 kts 45°
2026-05-06 11:07 39.82478 -3.92117 12429 ft 299 kts 44°
2026-05-06 11:07 39.83924 -3.90198 12160 ft 295 kts 44°
2026-05-06 11:07 39.85355 -3.88299 11899 ft 292 kts 44°
2026-05-06 11:08 39.86771 -3.86420 11645 ft 289 kts 45°
2026-05-06 11:08 39.88178 -3.84575 11392 ft 286 kts 44°
2026-05-06 11:08 39.89572 -3.82754 11142 ft 283 kts 45°
2026-05-06 11:08 39.90938 -3.80974 10895 ft 280 kts 44°
2026-05-06 11:09 39.92308 -3.79189 10644 ft 277 kts 44°
2026-05-06 11:09 39.93663 -3.77421 10398 ft 275 kts 44°
2026-05-06 11:09 39.95009 -3.75667 10157 ft 272 kts 44°
2026-05-06 11:09 39.96344 -3.73933 9911 ft 270 kts 44°
2026-05-06 11:10 39.97674 -3.72209 9647 ft 268 kts 44°
2026-05-06 11:10 39.98993 -3.70502 9385 ft 266 kts 44°
2026-05-06 11:10 40.00302 -3.68808 9122 ft 264 kts 44°
2026-05-06 11:10 40.01603 -3.67124 8856 ft 262 kts 44°
2026-05-06 11:11 40.02895 -3.65452 8600 ft 261 kts 44°
2026-05-06 11:11 40.04177 -3.63790 8376 ft 258 kts 44°
2026-05-06 11:11 40.05440 -3.62151 8159 ft 253 kts 44°
2026-05-06 11:11 40.06668 -3.60560 7937 ft 245 kts 44°
2026-05-06 11:12 40.07886 -3.59067 7718 ft 237 kts 38°
2026-05-06 11:12 40.09160 -3.57765 7528 ft 229 kts 37°
2026-05-06 11:12 40.10413 -3.56525 7359 ft 223 kts 36°
2026-05-06 11:12 40.11655 -3.55301 7200 ft 224 kts 36°
2026-05-06 11:13 40.12884 -3.54090 7046 ft 224 kts 37°
2026-05-06 11:13 40.14133 -3.52861 6894 ft 225 kts 36°
2026-05-06 11:13 40.15400 -3.51612 6734 ft 226 kts 36°
2026-05-06 11:13 40.16637 -3.50389 6584 ft 226 kts 36°
2026-05-06 11:14 40.17907 -3.49137 6425 ft 225 kts 37°
2026-05-06 11:14 40.19139 -3.47922 6263 ft 224 kts 36°
2026-05-06 11:14 40.20376 -3.46700 6088 ft 221 kts 36°
2026-05-06 11:14 40.21591 -3.45498 5915 ft 217 kts 37°
2026-05-06 11:15 40.22781 -3.44321 5751 ft 211 kts 36°
2026-05-06 11:15 40.23922 -3.43191 5609 ft 201 kts 36°
2026-05-06 11:15 40.25090 -3.42260 5456 ft 195 kts 28°
2026-05-06 11:15 40.26271 -3.41408 5300 ft 193 kts 28°
2026-05-06 11:16 40.27440 -3.40558 5135 ft 191 kts 28°
2026-05-06 11:16 40.28608 -3.39705 5033 ft 194 kts 28°
2026-05-06 11:16 40.29872 -3.39172 4977 ft 192 kts 354°
2026-05-06 11:16 40.31038 -3.39895 5022 ft 189 kts 321°
2026-05-06 11:17 40.32103 -3.40936 5013 ft 192 kts 324°
2026-05-06 11:17 40.33179 -3.41985 5003 ft 192 kts 323°
2026-05-06 11:17 40.34239 -3.43054 4947 ft 192 kts 323°
2026-05-06 11:17 40.35280 -3.44115 4737 ft 185 kts 322°
2026-05-06 11:18 40.36268 -3.45125 4489 ft 175 kts 322°
2026-05-06 11:18 40.37193 -3.46071 4264 ft 168 kts 322°
2026-05-06 11:18 40.38099 -3.46996 4083 ft 161 kts 322°
2026-05-06 11:18 40.38988 -3.47904 3840 ft 160 kts 322°
2026-05-06 11:19 40.39844 -3.48778 3627 ft 153 kts 322°
2026-05-06 11:19 40.40674 -3.49628 3436 ft 149 kts 321°
2026-05-06 11:19 40.41468 -3.50496 3255 ft 150 kts 319°
2026-05-06 11:19 40.42265 -3.51409 2957 ft 153 kts 320°
2026-05-06 11:20 40.43088 -3.52258 2767 ft 149 kts 327°
2026-05-06 11:20 40.43961 -3.53000 2565 ft 149 kts 326°
2026-05-06 11:20 40.44793 -3.53818 2350 ft 149 kts 317°
2026-05-06 11:20 40.45596 -3.54659 2166 ft 146 kts 322°
2026-05-06 11:21 40.46404 -3.55484 1980 ft 147 kts 319°
2026-05-06 11:21 40.47146 -3.56238 1980 ft 116 kts 322°
2026-05-06 11:21 40.47665 -3.56764 1995 ft 73 kts 322°
2026-05-06 11:21 40.47950 -3.57054 2000 ft 36 kts 322°
2026-05-06 11:22 40.47992 -3.57222 2004 ft 15 kts 233°
2026-05-06 11:22 40.47928 -3.57330 2004 ft 15 kts 232°
2026-05-06 11:22 40.47866 -3.57433 2004 ft 14 kts 232°
2026-05-06 11:22 40.47790 -3.57475 2002 ft 13 kts 148°
2026-05-06 11:23 40.47713 -3.57402 2000 ft 14 kts 144°
2026-05-06 11:23 40.47631 -3.57325 1998 ft 15 kts 144°
2026-05-06 11:23 40.47555 -3.57240 1996 ft 14 kts 137°
2026-05-06 11:23 40.47476 -3.57170 1992 ft 14 kts 170°
2026-05-06 11:24 40.47378 -3.57172 1989 ft 14 kts 184°
2026-05-06 11:24 40.47307 -3.57172 1989 ft 1 kts 150°
2026-05-06 11:24 40.47300 -3.57165 1988 ft 2 kts 146°
2026-05-06 11:24 40.47289 -3.57152 1989 ft 3 kts 139°
2026-05-06 11:25 40.47280 -3.57142 1988 ft 1 kts 136°
2026-05-06 11:25 40.47278 -3.57140 1988 ft 0 kts 136°